Weather in Lahinch

Ireland     52°55′54″N   9°20′25″W
В апреле 2022 года жителям России запретили посещать сайт meteo.paraplan.net по решению Генеральной прокуратуры. Аудитория сайта уменьшилась в 10 раз. Владельцы сайта не видят смысла в поддержке погодного сервера в таких условиях. Сайт будет закрыт в октябре.
temp.,
°C
wind,
m/s
gust,
m/s
humid.,
%
clouds,
%
prec.,
mm/h
press.,
hPa
HPBL,
m
29 september, thu
thu2901:00+9nnw358768 0.0 1009176
04:00+9nnw368999 0.0 1009206
07:00+8n37905 0.0 1010238
10:00+12n47784 0.0 1011701
13:00+14nnw336714 0.0 1012844
16:00+14w44675 0.0 1012743
19:00+11w3582100 0.0 1011193
22:00+11ssw4784100 0.0 1010303
30 september, fri
fri3001:00+10s61292100 0.7 1008498
04:00+11s81694100 1.4 1003744
07:00+14ssw122095100 3.3 998944
10:00+15sw152397100 8.7 9941227
13:00+14w101684100 10.9 9961189
16:00+14w11158329 0.4 9971283
19:00+13w1015898 1.8 998992
22:00+12w10148931 1.6 999824
1 october, sat
sat101:00+11w10148449 2.4 1001851
04:00+12w11148218 0.6 1002989
07:00+12w10148412 0.9 1004946
10:00+13w1013815 0.3 10061113
13:00+14wsw9127832 0.7 10091266
16:00+15wsw8127897 0.2 10091178
19:00+13wsw61087100 0.4 1010639
22:00+11w2495100 3.7 1010203
2 october, sun
sun201:00+11nne3696100 9.9 1008371
04:00+10nnw499244 4.8 1011413
07:00+11nw711810 4.8 1015560
10:00+13nw697835 0.0 1019883
13:00+15wnw567051 0.1 1022833
16:00+14w5776100 0.1 1024778
19:00+12wsw3586100 0.1 1025156
22:00+11s238891 0.0 1025106
3 october, mon
mon301:00+10se3489100 0.0 102584
04:00+13se5898100 0.1 1019246
07:00+14sse51398100 1.0 1017505
10:00+15sse61397100 1.6 1015586
13:00+17ssw101891100 7.3 1014977
16:00+16ssw101895100 2.0 1013901
19:00+16sw91697100 4.9 1013789
22:00+16ssw71496100 1.8 1013690